Weather in Starotomnikovo

Russia / Tambov Oblast     53°43′37″N   41°53′50″E
temp.,
°C
wind,
m/s
gust,
m/s
humid.,
%
clouds,
%
prec.,
mm/h
press.,
hPa
HPBL,
m
6 august, fri
fri600:00+18sse2557100 0.0 101592
03:00+19sse2556100 0.0 1015106
06:00+19ese2659100 0.0 1015140
09:00+20se31055100 0.0 1015433
12:00+26s4638100 0.0 1015805
15:00+28sse36365 0.0 10131355
18:00+27se3743100 0.0 1012234
21:00+23se51350100 0.0 1012432
7 august, sat
sat700:00+22sse51550100 0.0 1012507
03:00+22sse4144394 0.0 1012499
06:00+21sse4144790 0.0 1013477
09:00+23s3104559 0.1 1014590
12:00+30s462895 0.0 10131339
15:00+32sse45257 0.0 10122246
18:00+29se483571 0.0 1012396
21:00+23se412488 0.0 1013318
8 august, sun
sun800:00+22se4134976 0.0 1014311
03:00+19se395898 0.0 1015179
06:00+19se31158100 0.0 1015217
09:00+25sse3738100 0.0 1015367
12:00+31sse3526100 0.0 1015982
15:00+32s3525100 0.1 10151445
18:00+29w1139100 0.0 101515
21:00+25ese1144100 0.0 101611
9 august, mon
mon900:00+24s2340100 0.0 101763
03:00+24ssw2240100 0.0 101838
06:00+23sse2246100 0.0 101828
09:00+24sw2350100 0.0 101991
12:00+30se1132100 0.0 1019602
15:00+31ese2230100 0.0 10191303
18:00+25s2349100 0.0 101954
21:00+23sw1147100 0.0 101916
10 august, tue
tue1000:00+23ne3747100 0.0 1018125
03:00+22ne2250100 0.0 101847
06:00+21ne276098 0.0 1018161
09:00+26ene4651100 0.0 1017377
12:00+31ene3530100 0.0 10161489
15:00+33ese4526100 0.0 10142886
18:00+27ne1244100 0.0 101462
21:00+22nne61269100 0.0 1015312